{"data":{"norad_id":49049,"epoch":"2026-09-20T23:04:12.976320Z","epoch_age_seconds":61053,"freshness":"FRESH","line1":"1 49049U 21067A   26263.96126130  .00002948  00000+0  12687-3 0  9998","line2":"2 49049  97.2674 329.1244 0001859 157.0092 203.1229 15.23376414286174","mean_motion":15.23376414,"eccentricity":0.0001859,"inclination_deg":97.2674,"raan_deg":329.1244,"arg_perigee_deg":157.0092,"mean_anomaly_deg":203.1229,"bstar":0.00012687,"rev_number":28617,"period_min":94.526867211954,"perigee_km":494.38723987176,"apogee_km":496.94291948498,"semimajor_km":6873.8020796784,"source":"CELESTRAK","updated_at":"2026-09-21T09:00:07.943327Z"}}